Battle Mountain, Nevada, United States (89820)
Lat: 40.64N, Lon: 116.93W
Wx Zone: NVZ036
Local Info
Past Weather Observations for Friday, October 17, 2014

NOTE: This archive is for the closest National Weather Service station to Battle Mountain. Information may differ from the station used for current weather conditions.

Click here for Long-term Archive

Time Weather Temperature Dewpoint Humidity Pressure Winds Precip Visibility
23:56
Clear
45°F / 7°C 27°F / -3°C 49% 30.04 in
(1017 mb)
Calm - 10SM
22:56
Clear
46°F / 8°C 27°F / -3°C 46% 30.04 in
(1017 mb)
W 6.9 mph
(W 11 kph)
- 10SM
21:56
Clear
46°F / 8°C 28°F / -2°C 50% 30.04 in
(1017 mb)
Calm - 10SM
20:56
Clear
50°F / 10°C 27°F / -3°C 40% 30.04 in
(1017 mb)
NW 5.8 mph
(NW 9 kph)
- 10SM
19:56
Clear
52°F / 11°C 27°F / -3°C 38% 30.01 in
(1016 mb)
SSW 4.6 mph
(SSW 7 kph)
- 10SM
18:56
Clear
50°F / 10°C 25°F / -4°C 37% 30.01 in
(1016 mb)
SSW 10.4 mph
(SSW 17 kph)
- 10SM
17:56
Clear
59°F / 15°C 27°F / -3°C 29% 29.98 in
(1015 mb)
NW 3.5 mph
(NW 6 kph)
- 10SM
15:56
Clear
66°F / 19°C 27°F / -3°C 22% 29.95 in
(1014 mb)
WNW 8.1 mph
(WNW 13 kph)
- 10SM
13:56
Clear
70°F / 21°C 27°F / -3°C 20% 29.95 in
(1014 mb)
SW 10.4 mph
(SW 17 kph)
- 10SM
12:56
Clear
70°F / 21°C 25°F / -4°C 18% 29.95 in
(1014 mb)
SW 4.6 mph
(SW 7 kph)
- 10SM
11:56
Clear
68°F / 20°C 21°F / -6°C 17% 29.98 in
(1015 mb)
NW 5.8 mph
(NW 9 kph)
- 10SM
09:56
Clear
61°F / 16°C 25°F / -4°C 25% 30.01 in
(1016 mb)
ENE 4.6 mph
(ENE 7 kph)
- 10SM
08:56
Clear
55°F / 13°C 25°F / -4°C 31% 30.01 in
(1016 mb)
NE 9.2 mph
(NE 15 kph)
- 10SM
07:56
Clear
50°F / 10°C 25°F / -4°C 37% 30.01 in
(1016 mb)
NE 11.5 mph
(NE 19 kph)
- 10SM
06:56
Clear
39°F / 4°C 23°F / -5°C 52% 30.01 in
(1016 mb)
SE 5.8 mph
(SE 9 kph)
- 10SM
05:56
Clear
39°F / 4°C 23°F / -5°C 52% 29.98 in
(1015 mb)
ENE 8.1 mph
(ENE 13 kph)
- 10SM
04:56
Clear
37°F / 3°C 21°F / -6°C 52% 29.98 in
(1015 mb)
SE 5.8 mph
(SE 9 kph)
- 10SM
03:56
Clear
46°F / 8°C 25°F / -4°C 43% 29.98 in
(1015 mb)
E 9.2 mph
(E 15 kph)
- 10SM
02:56
Clear
45°F / 7°C 23°F / -5°C 42% 29.98 in
(1015 mb)
E 8.1 mph
(E 13 kph)
- 10SM
01:56
Clear
39°F / 4°C 21°F / -6°C 48% 29.98 in
(1015 mb)
ESE 5.8 mph
(ESE 9 kph)
- 10SM
00:56
Clear
41°F / 5°C 21°F / -6°C 45% 30.01 in
(1016 mb)
E 4.6 mph
(E 7 kph)
- 10SM
Time Weather Temperature Dewpoint Humidity Pressure Winds Precip Visibility


Weather for websites

WeatherForYou.com, LLC is not responsible for any damages or problems caused by this service. Current weather conditions are obtained from the closest station including government and personal stations which may have varying degrees of accuracy. Weather forecasts are derived from the NOAA NDFD. Like all things, this site belongs to Jesus Christ... He just trusts me to maintain it. If you have any questions or comments email webmaster@weatherforyou.com

Copyright © 2014, WeatherForYou.com LLC. All rights reserved.